When you browse on this site, cookies collect data to enhance your experience and personalize the content and advertising you see.
Visit our Privacy Policy to learn more. By continuing to use the site, you agree to this use of cookies and data.
  • In Romania
  • List of Countries
  • For 7 days
  • Water Temperature
  • Satellite Maps
  • Weather Map
  • Weather Widgets
  • user-avatar
    Login

    Hourly Weather Serchhip

    Today, 20 July, Saturday

    Time Temperature Precipitation Wind Pressure Humidity
    00:00 +21°C° 0 mm 0 mps 679 mmHg 99%
    01:00 +21°C° 0.1 mm 0 mps 678 mmHg 99%
    02:00 +21°C° 0.1 mm 0 mps 678 mmHg 99%
    03:00 +21°C° 0.1 mm 0 mps 678 mmHg 99%
    04:00 +21°C° 0.2 mm 0 mps 679 mmHg 99%
    05:00 +21°C° 0.2 mm 0 mps 679 mmHg 98%
    06:00 +21°C° 0.2 mm 0 mps 679 mmHg 98%
    07:00 +23°C° 0.1 mm 0 mps 680 mmHg 92%
    08:00 +24°C° 0.1 mm 0 mps 680 mmHg 86%
    09:00 +26°C° 0.1 mm 0 mps 681 mmHg 79%
    10:00 +28°C° 0.5 mm 1 mps 680 mmHg 78%
    11:00 +29°C° 0.5 mm 1 mps 680 mmHg 77%
    12:00 +29°C° 0.5 mm 1 mps 679 mmHg 76%
    13:00 +29°C° 1.6 mm 1 mps 679 mmHg 80%
    14:00 +28°C° 1.6 mm 1 mps 678 mmHg 83%
    15:00 +26°C° 1.6 mm 0 mps 678 mmHg 87%
    16:00 +25°C° 1.2 mm 0 mps 677 mmHg 90%
    17:00 +24°C° 1.2 mm 0 mps 677 mmHg 93%
    18:00 +23°C° 1.2 mm 0 mps 677 mmHg 96%
    19:00 +23°C° 0.1 mm 0 mps 677 mmHg 97%
    20:00 +22°C° 0.1 mm 0 mps 678 mmHg 98%
    21:00 +22°C° 0.1 mm 0 mps 678 mmHg 98%
    22:00 +21°C° 0.1 mm 0 mps 678 mmHg 99%
    23:00 +21°C° 0.1 mm 0 mps 679 mmHg 99%

    Tomorrow, 21 July, Sunday

    Time Temperature Precipitation Wind Pressure Humidity
    00:00 +21°C° 0.1 mm 0 mps 679 mmHg 99%
    01:00 +21°C° 0.1 mm 0 mps 678 mmHg 99%
    02:00 +21°C° 0.1 mm 0 mps 678 mmHg 99%
    03:00 +21°C° 0.1 mm 0 mps 678 mmHg 99%
    04:00 +21°C° 0 mm 0 mps 678 mmHg 99%
    05:00 +21°C° 0 mm 0 mps 678 mmHg 98%
    06:00 +21°C° 0 mm 0 mps 678 mmHg 98%
    07:00 +23°C° 0 mm 0 mps 679 mmHg 89%
    08:00 +24°C° 0 mm 0 mps 679 mmHg 81%
    09:00 +26°C° 0 mm 0 mps 680 mmHg 72%
    10:00 +27°C° 0 mm 0 mps 680 mmHg 67%
    11:00 +30°C° 0 mm 1 mps 680 mmHg 62%
    12:00 +32°C° 0 mm 1 mps 680 mmHg 57%
    13:00 +31°C° 0.5 mm 1 mps 679 mmHg 64%
    14:00 +30°C° 0.5 mm 1 mps 678 mmHg 71%
    15:00 +28°C° 0.5 mm 1 mps 677 mmHg 79%
    16:00 +27°C° 0.4 mm 1 mps 677 mmHg 84%
    17:00 +27°C° 0.4 mm 1 mps 677 mmHg 89%
    18:00 +24°C° 0.4 mm 0 mps 677 mmHg 94%
    19:00 +23°C° 0.1 mm 0 mps 677 mmHg 95%
    20:00 +22°C° 0.1 mm 0 mps 678 mmHg 97%
    21:00 +22°C° 0.1 mm 0 mps 678 mmHg 98%
    22:00 +21°C° 0.1 mm 0 mps 678 mmHg 98%
    23:00 +21°C° 0.1 mm 0 mps 678 mmHg 98%

    Day after tomorrow, 22 July, Monday

    Time Temperature Precipitation Wind Pressure Humidity
    00:00 +21°C° 0.1 mm 0 mps 678 mmHg 99%
    01:00 +21°C° 0.1 mm 0 mps 678 mmHg 99%
    02:00 +21°C° 0.1 mm 0 mps 678 mmHg 99%
    03:00 +21°C° 0.1 mm 0 mps 677 mmHg 99%
    04:00 +21°C° 0.1 mm 0 mps 677 mmHg 99%
    05:00 +21°C° 0.1 mm 0 mps 678 mmHg 98%
    06:00 +21°C° 0.1 mm 0 mps 678 mmHg 98%
    07:00 +22°C° 0.2 mm 0 mps 678 mmHg 92%
    08:00 +25°C° 0.2 mm 1 mps 679 mmHg 86%
    09:00 +26°C° 0.2 mm 1 mps 679 mmHg 80%
    10:00 +26°C° 1.4 mm 1 mps 679 mmHg 85%
    11:00 +25°C° 1.4 mm 1 mps 679 mmHg 89%
    12:00 +25°C° 1.4 mm 1 mps 678 mmHg 94%
    13:00 +24°C° 1.1 mm 1 mps 678 mmHg 95%
    14:00 +24°C° 1.1 mm 1 mps 677 mmHg 96%
    15:00 +23°C° 1.1 mm 1 mps 677 mmHg 97%
    16:00 +21°C° 0.1 mm 0 mps 677 mmHg 97%
    17:00 +21°C° 0.1 mm 0 mps 677 mmHg 97%
    18:00 +21°C° 0.1 mm 0 mps 677 mmHg 97%
    19:00 +20°C° 0 mm 0 mps 677 mmHg 97%
    20:00 +20°C° 0 mm 0 mps 678 mmHg 97%
    21:00 +20°C° 0 mm 0 mps 678 mmHg 97%
    22:00 +20°C° 0 mm 0 mps 678 mmHg 96%
    23:00 +20°C° 0 mm 0 mps 678 mmHg 96%

    23 July, Tuesday

    Time Temperature Precipitation Wind Pressure Humidity
    00:00 +20°C° 0 mm 0 mps 678 mmHg 96%
    01:00 +20°C° 0 mm 0 mps 677 mmHg 95%
    02:00 +20°C° 0 mm 0 mps 677 mmHg 95%
    03:00 +20°C° 0 mm 0 mps 677 mmHg 95%
    04:00 +20°C° 0 mm 0 mps 677 mmHg 95%
    05:00 +20°C° 0 mm 0 mps 677 mmHg 95%
    06:00 +20°C° 0 mm 0 mps 677 mmHg 95%
    07:00 +20°C° 0.1 mm 0 mps 678 mmHg 93%
    08:00 +21°C° 0.1 mm 0 mps 678 mmHg 92%
    09:00 +22°C° 0.1 mm 0 mps 678 mmHg 91%
    10:00 +25°C° 0.2 mm 1 mps 678 mmHg 87%
    11:00 +25°C° 0.2 mm 1 mps 678 mmHg 83%
    12:00 +26°C° 0.2 mm 1 mps 678 mmHg 79%
    13:00 +26°C° 1.2 mm 1 mps 677 mmHg 84%
    14:00 +25°C° 1.2 mm 1 mps 677 mmHg 89%
    15:00 +25°C° 1.2 mm 1 mps 676 mmHg 94%
    16:00 +24°C° 0.8 mm 1 mps 677 mmHg 95%
    17:00 +24°C° 0.8 mm 1 mps 677 mmHg 96%
    18:00 +23°C° 0.8 mm 1 mps 677 mmHg 98%
    19:00 +23°C° 0 mm 1 mps 677 mmHg 98%
    20:00 +20°C° 0 mm 0 mps 678 mmHg 97%
    21:00 +20°C° 0 mm 0 mps 678 mmHg 97%
    22:00 +20°C° 0 mm 0 mps 678 mmHg 97%
    23:00 +20°C° 0 mm 0 mps 678 mmHg 97%

    24 July, Wednesday

    Time Temperature Precipitation Wind Pressure Humidity
    00:00 +20°C° 0 mm 0 mps 678 mmHg 97%
    01:00 +20°C° 0 mm 0 mps 677 mmHg 97%
    02:00 +20°C° 0 mm 0 mps 677 mmHg 97%
    03:00 +20°C° 0 mm 0 mps 676 mmHg 97%
    04:00 +20°C° 0 mm 0 mps 677 mmHg 97%
    05:00 +20°C° 0 mm 0 mps 677 mmHg 96%
    06:00 +20°C° 0 mm 0 mps 677 mmHg 96%
    07:00 +21°C° 0 mm 0 mps 677 mmHg 92%
    08:00 +22°C° 0 mm 0 mps 678 mmHg 89%
    09:00 +23°C° 0 mm 0 mps 678 mmHg 85%
    10:00 +24°C° 0.3 mm 0 mps 678 mmHg 81%
    11:00 +27°C° 0.3 mm 1 mps 678 mmHg 77%
    12:00 +28°C° 0.3 mm 1 mps 678 mmHg 73%
    13:00 +28°C° 1.6 mm 1 mps 677 mmHg 80%
    14:00 +27°C° 1.6 mm 1 mps 676 mmHg 86%
    15:00 +26°C° 1.6 mm 1 mps 676 mmHg 92%
    16:00 +26°C° 1.4 mm 1 mps 676 mmHg 94%
    17:00 +25°C° 1.4 mm 1 mps 676 mmHg 96%
    18:00 +24°C° 1.4 mm 1 mps 676 mmHg 98%
    19:00 +23°C° 0.4 mm 1 mps 677 mmHg 98%
    20:00 +21°C° 0.4 mm 0 mps 677 mmHg 98%
    21:00 +20°C° 0.4 mm 0 mps 678 mmHg 98%
    22:00 +20°C° 0.2 mm 0 mps 678 mmHg 98%
    23:00 +20°C° 0.2 mm 0 mps 678 mmHg 98%

    25 July, Thursday

    Time Temperature Precipitation Wind Pressure Humidity
    00:00 +20°C° 0.2 mm 0 mps 677 mmHg 98%
    01:00 +20°C° 0.1 mm 0 mps 677 mmHg 98%
    02:00 +20°C° 0.1 mm 0 mps 677 mmHg 98%
    03:00 +20°C° 0.1 mm 0 mps 677 mmHg 98%
    04:00 +20°C° 0 mm 0 mps 677 mmHg 98%
    05:00 +20°C° 0 mm 0 mps 677 mmHg 98%
    06:00 +20°C° 0 mm 0 mps 677 mmHg 97%
    07:00 +22°C° 0 mm 0 mps 677 mmHg 89%
    08:00 +24°C° 0 mm 0 mps 678 mmHg 80%
    09:00 +26°C° 0 mm 0 mps 678 mmHg 71%
    10:00 +26°C° 0.3 mm 0 mps 678 mmHg 75%
    11:00 +28°C° 0.3 mm 1 mps 677 mmHg 78%
    12:00 +28°C° 0.3 mm 1 mps 677 mmHg 81%
    13:00 +28°C° 1.9 mm 1 mps 677 mmHg 84%
    14:00 +27°C° 1.9 mm 1 mps 676 mmHg 87%
    15:00 +27°C° 1.9 mm 1 mps 676 mmHg 90%
    16:00 +26°C° 0.8 mm 1 mps 676 mmHg 91%
    17:00 +25°C° 0.8 mm 1 mps 676 mmHg 93%
    18:00 +22°C° 0.8 mm 0 mps 676 mmHg 94%
    19:00 +24°C° 0.5 mm 1 mps 676 mmHg 95%
    20:00 +23°C° 0.5 mm 1 mps 677 mmHg 96%
    21:00 +23°C° 0.5 mm 1 mps 678 mmHg 97%
    22:00 +23°C° 0.9 mm 1 mps 678 mmHg 98%
    23:00 +22°C° 0.9 mm 1 mps 678 mmHg 98%
    Show more